Weather History for Fairmont, MN

Change the Weather History Date:

Monday, February 18, 2013

  Actual Average Record
Temperature  
Mean Temperature 24 °F -  
Max Temperature 41 °F 29 °F 61 °F (1954)
Min Temperature 6 °F 13 °F -14 °F (2006)
Degree Days  
Heating Degree Days 42    
Moisture  
Dew Point 16 °F    
Average Humidity 63    
Maximum Humidity 79    
Minimum Humidity 53    
Precipitation  
Precipitation 0.00 in - - ()
Sea Level Pressure  
Sea Level Pressure 29.69 in    
Wind  
Wind Speed 17 mph (ESE)    
Max Wind Speed 34 mph    
Max Gust Speed 41 mph    
Visibility 8 miles    
Events      
Averages and records for this station are not official NWS values.
T = Trace of Precipitation, MM = Missing Value Source: NWS Daily Summary

Daily Weather History Graph

Daily Weather History Graph

Search for Another Location

Airport:

Trip Planner

Search our weather history database for the weather conditions in past years. The results will help you decide how hot, cold, wet, or windy it might be!

Date:

Astronomy

Feb. 18, 2013 Rise Set
Actual Time 7:11 AM CST 5:52 PM CST
Civil Twilight 6:42 AM CST 6:21 PM CST
Nautical Twilight 6:08 AM CST 6:55 PM CST
Astronomical Twilight 5:35 AM CST 7:28 PM CST
Moon 11:33 AM CST (2/18) 1:56 AM CST (2/18)
Length of Visible Light 11h 39m
Length of Day
10h 41m
First Quarter, 58% of the Moon is Illuminated
Feb 18
First Quarter
Feb 25
Full
Mar 4
Last Quarter
Mar 11
New
Mar 19
First Quarter

Hourly Weather History & Observations

Time (CST) Temp. Windchill Dew Point Humidity Pressure Visibility Wind Dir Wind Speed Gust Speed Precip Events Conditions
12:15 AM 39.2 °F 30.8 °F 24.8 °F 56% 29.57 in 10.0 mi SSE 15.0 mph - N/A   Clear
12:35 AM 37.4 °F 29.8 °F 26.6 °F 65% 29.57 in 10.0 mi SSE 11.5 mph - N/A   Clear
12:55 AM 37.4 °F 29.8 °F 26.6 °F 65% 29.57 in 10.0 mi South 11.5 mph - N/A   Clear
1:15 AM 37.4 °F 30.3 °F 26.6 °F 65% 29.57 in 10.0 mi South 10.4 mph - N/A   Clear
1:35 AM 37.4 °F 29.8 °F 26.6 °F 65% 29.57 in 10.0 mi South 11.5 mph - N/A   Clear
1:55 AM 37.4 °F 30.3 °F 26.6 °F 65% 29.56 in 10.0 mi South 10.4 mph - N/A   Clear
2:15 AM 37.4 °F 30.8 °F 26.6 °F 65% 29.57 in 10.0 mi South 9.2 mph - N/A   Clear
2:35 AM 37.4 °F 29.8 °F 26.6 °F 65% 29.56 in 10.0 mi South 11.5 mph - N/A   Clear
2:55 AM 39.2 °F 32.5 °F 26.6 °F 61% 29.56 in 10.0 mi South 10.4 mph - N/A   Clear
3:15 AM 39.2 °F 34.2 °F 26.6 °F 61% 29.55 in 10.0 mi South 6.9 mph - N/A   Clear
3:55 AM 37.4 °F 30.8 °F 26.6 °F 65% 29.55 in 10.0 mi South 9.2 mph - N/A   Clear
4:15 AM 37.4 °F 33.8 °F 26.6 °F 65% 29.55 in 10.0 mi SE 4.6 mph - N/A   Clear
4:35 AM 35.6 °F 29.9 °F 26.6 °F 70% 29.55 in 10.0 mi ESE 6.9 mph - N/A   Clear
4:55 AM 35.6 °F 30.7 °F 26.6 °F 70% 29.55 in 10.0 mi SE 5.8 mph - N/A   Clear
5:15 AM 37.4 °F 32.8 °F 28.4 °F 70% 29.56 in 10.0 mi SE 5.8 mph - N/A   Clear
5:35 AM 37.4 °F - 28.4 °F 70% 29.56 in 10.0 mi Calm Calm - N/A   Clear
5:55 AM 35.6 °F 29.9 °F 26.6 °F 70% 29.55 in 10.0 mi South 6.9 mph - N/A   Clear
6:15 AM 35.6 °F 30.7 °F 26.6 °F 70% 29.56 in 10.0 mi SSE 5.8 mph - N/A   Clear
6:35 AM 37.4 °F 31.4 °F 26.6 °F 65% 29.56 in 10.0 mi SE 8.1 mph - N/A   Clear
6:55 AM 39.2 °F 32.5 °F 28.4 °F 65% 29.56 in 10.0 mi SSE 10.4 mph - N/A   Clear
7:15 AM 39.2 °F 32.5 °F 28.4 °F 65% 29.57 in 10.0 mi SE 10.4 mph - N/A   Clear
7:35 AM 39.2 °F 32.0 °F 28.4 °F 65% 29.58 in 10.0 mi SE 11.5 mph - N/A   Clear
7:55 AM 39.2 °F 31.6 °F 28.4 °F 65% 29.58 in 10.0 mi SE 12.7 mph - N/A   Clear
8:15 AM 39.2 °F 32.5 °F 28.4 °F 65% 29.60 in 10.0 mi SE 10.4 mph - N/A   Partly Cloudy
8:35 AM 39.2 °F 31.6 °F 28.4 °F 65% 29.60 in 10.0 mi SE 12.7 mph - N/A   Mostly Cloudy
8:55 AM 39.2 °F 30.5 °F 28.4 °F 65% 29.60 in 9.0 mi SE 16.1 mph - N/A   Overcast
9:15 AM 41.0 °F 32.8 °F 28.4 °F 61% 29.59 in 10.0 mi East 16.1 mph 25.3 mph N/A   Overcast
9:35 AM 37.4 °F 25.6 °F 28.4 °F 70% 29.61 in 8.0 mi NW 26.5 mph 33.4 mph N/A   Overcast
9:55 AM 35.6 °F 24.0 °F 24.8 °F 65% 29.63 in 9.0 mi NW 23.0 mph 34.5 mph N/A   Overcast
10:15 AM 33.8 °F 21.9 °F 21.2 °F 60% 29.63 in 10.0 mi NW 21.9 mph 39.1 mph N/A   Overcast
10:35 AM 32.0 °F 19.8 °F 19.4 °F 60% 29.66 in 10.0 mi WNW 20.7 mph 33.4 mph N/A   Overcast
10:55 AM 32.0 °F 18.6 °F 19.4 °F 60% 29.67 in 10.0 mi WNW 25.3 mph 32.2 mph N/A   Overcast
11:15 AM 30.2 °F 15.7 °F 19.4 °F 64% 29.67 in 10.0 mi WNW 27.6 mph 32.2 mph N/A   Overcast
11:35 AM 30.2 °F 16.2 °F 19.4 °F 64% 29.67 in 10.0 mi WNW 25.3 mph 34.5 mph N/A   Overcast
11:55 AM 30.2 °F 15.4 °F 17.6 °F 60% 29.67 in 10.0 mi WNW 28.8 mph 35.7 mph N/A   Overcast
12:15 PM 30.2 °F 16.5 °F 17.6 °F 60% 29.67 in 10.0 mi WNW 24.2 mph 34.5 mph N/A   Overcast
12:35 PM 28.4 °F 13.3 °F 17.6 °F 64% 29.68 in 10.0 mi East 27.6 mph 35.7 mph N/A   Overcast
12:55 PM 28.4 °F 13.3 °F 15.8 °F 59% 29.69 in 10.0 mi East 27.6 mph 34.5 mph N/A   Overcast
1:15 PM 26.6 °F 12.7 °F 14.0 °F 59% 29.70 in 10.0 mi ENE 20.7 mph 36.8 mph N/A   Overcast
1:35 PM 26.6 °F 12.0 °F 12.2 °F 55% 29.71 in 9.0 mi ENE 23.0 mph 35.7 mph N/A   Overcast
1:55 PM 26.6 °F 10.0 °F 12.2 °F 55% 29.71 in 10.0 mi ENE 31.1 mph 35.7 mph N/A   Overcast
2:15 PM 24.8 °F 7.6 °F 12.2 °F 59% 29.72 in 10.0 mi ENE 31.1 mph 35.7 mph N/A   Overcast
2:35 PM 24.8 °F 9.0 °F 12.2 °F 59% 29.73 in 10.0 mi ENE 25.3 mph 34.5 mph N/A   Overcast
2:55 PM 24.8 °F 8.7 °F 10.4 °F 54% 29.74 in 10.0 mi ENE 26.5 mph 33.4 mph N/A   Overcast
3:15 PM 23.0 °F 6.0 °F 8.6 °F 54% 29.75 in 10.0 mi ENE 27.6 mph 38.0 mph N/A   Overcast
3:35 PM 23.0 °F 6.3 °F 8.6 °F 54% 29.75 in 10.0 mi ENE 26.5 mph 35.7 mph N/A   Overcast
3:55 PM 23.0 °F 5.4 °F 8.6 °F 54% 29.76 in 9.0 mi ENE 29.9 mph 39.1 mph N/A   Overcast
4:15 PM 21.2 °F 2.4 °F 6.8 °F 54% 29.77 in 10.0 mi ENE 32.2 mph 39.1 mph N/A   Overcast
4:35 PM 19.4 °F 2.1 °F 8.6 °F 63% 29.78 in 7.0 mi ENE 24.2 mph 31.1 mph N/A   Overcast
4:55 PM 19.4 °F 1.4 °F 5.0 °F 54% 29.78 in 7.0 mi East 26.5 mph 40.3 mph N/A   Overcast
5:15 PM - - - N/A% 29.78 in 6.0 mi West 28.8 mph 38.0 mph N/A   Overcast
5:35 PM 17.6 °F -1.9 °F 3.2 °F 53% 29.79 in 10.0 mi South 29.9 mph 36.8 mph N/A   Overcast
5:55 PM 17.6 °F -1.3 °F 5.0 °F 58% 29.79 in 10.0 mi West 27.6 mph 36.8 mph N/A   Overcast
6:15 PM 15.8 °F -3.1 °F 3.2 °F 58% 29.81 in 10.0 mi ENE 25.3 mph 38.0 mph N/A   Mostly Cloudy
6:35 PM 15.8 °F -4.4 °F 6.8 °F 68% 29.81 in 3.0 mi ENE 29.9 mph 36.8 mph N/A   Overcast
6:55 PM 15.8 °F -3.4 °F 1.4 °F 53% 29.82 in 10.0 mi ENE 26.5 mph 35.7 mph N/A   Mostly Cloudy
7:15 PM 14.0 °F -7.1 °F 5.0 °F 67% 29.82 in 8.0 mi ENE 31.1 mph 41.4 mph N/A   Mostly Cloudy
7:35 PM 12.2 °F -8.2 °F 3.2 °F 67% 29.83 in 9.0 mi East 26.5 mph 38.0 mph N/A   Overcast
7:55 PM 14.0 °F -7.1 °F 1.4 °F 57% 29.83 in 9.0 mi ENE 31.1 mph 41.4 mph N/A   Overcast
8:15 PM 12.2 °F -9.6 °F 1.4 °F 62% 29.83 in 9.0 mi ENE 31.1 mph 39.1 mph N/A   Overcast
8:35 PM 12.2 °F -7.5 °F 1.4 °F 62% 29.84 in 4.0 mi ENE 24.2 mph 40.3 mph N/A   Overcast
8:55 PM 10.4 °F -11.4 °F 3.2 °F 73% 29.85 in 1.8 mi ENE 28.8 mph 35.7 mph N/A   Overcast
9:15 PM 10.4 °F -9.9 °F 1.4 °F 67% 29.85 in 1.8 mi East 24.2 mph 31.1 mph N/A   Overcast
9:35 PM 10.4 °F -13.0 °F 1.4 °F 67% 29.85 in 2.5 mi ENE 34.5 mph 41.4 mph N/A   Overcast
9:55 PM 10.4 °F -9.1 °F -0.4 °F 62% 29.86 in 5.0 mi ENE 21.9 mph 36.8 mph N/A   Overcast
10:15 PM 8.6 °F -11.9 °F 3.2 °F 79% 29.86 in 1.5 mi ENE 23.0 mph 31.1 mph N/A   Overcast
10:35 PM 8.6 °F -11.4 °F 1.4 °F 73% 29.87 in 0.8 mi ENE 21.9 mph 32.2 mph N/A   Overcast
10:55 PM 8.6 °F -14.1 °F -0.4 °F 67% 29.87 in 3.0 mi ENE 29.9 mph 40.3 mph N/A   Overcast
11:15 PM 6.8 °F -15.9 °F 1.4 °F 79% 29.88 in 1.5 mi ENE 27.6 mph 40.3 mph N/A   Overcast
11:35 PM 6.8 °F -16.6 °F -2.2 °F 67% 29.89 in 2.0 mi ENE 29.9 mph 40.3 mph N/A   Overcast
11:55 PM 6.8 °F -17.6 °F -4.0 °F 61% 29.90 in 8.0 mi ENE 33.4 mph 39.1 mph N/A   Overcast